GW2998 Weather Reports


time (UTC)temp
C
wind
direction
speed
KPH
gust
KPH
rain 1hr
cm
rain 24hr
cm
rain mn
cm
humidity
%
barometer
mb
20260510071632 9 31 1.6 3.2 0.00 0.00 0.00 99 1012.3
20260510071130 9 58 4.8 4.8 0.00 0.00 0.00 99 1012.4
20260510070628 9 70 0.0 4.8 0.00 0.00 0.00 99 1012.6
20260510070125 8 35 1.6 3.2 0.00 0.00 0.00 99 1012.7
20260510065620 8 64 0.0 3.2 0.00 0.00 0.00 99 1012.4
20260510065117 8 11 0.0 3.2 0.00 0.00 0.00 99 1012.5
20260510064613 8 28 0.0 3.2 0.00 0.00 0.00 99 1012.6
20260510064110 8 36 1.6 1.6 0.00 0.00 0.00 99 1013.1
20260510063607 8 147 0.0 1.6 0.00 0.00 0.00 99 1013.4
20260510063104 8 106 0.0 3.2 0.00 0.00 0.00 99 1013.5
20260510062559 8 75 1.6 3.2 0.00 0.00 0.00 99 1013.7
20260510062055 8 109 3.2 3.2 0.00 0.00 0.00 99 1013.9
20260510061552 8 34 1.6 3.2 0.00 0.00 0.00 99 1013.8
20260510061049 8 43 0.0 3.2 0.00 0.00 0.00 99 1013.6
20260510060544 8 60 0.0 3.2 0.00 0.00 0.00 99 1013.7
20260510060041 8 67 1.6 3.2 0.00 0.00 0.00 99 1013.7
20260510055537 8 55 0.0 1.6 0.00 0.00 0.00 99 1013.8
20260510055036 8 68 0.0 3.2 0.00 0.00 0.00 99 1013.7
20260510054531 7 173 0.0 3.2 0.00 0.00 0.00 99 1013.9
20260510054026 7 180 3.2 3.2 0.00 0.00 0.00 99 1013.7
20260510053521 7 182 1.6 3.2 0.00 0.00 0.00 99 1014.1
20260510053019 7 75 0.0 3.2 0.00 0.00 0.00 99 1013.9
20260510052514 7 96 4.8 6.4 0.00 0.00 0.00 99 1013.9
20260510052010 6 41 4.8 4.8 0.00 0.00 0.00 99 1013.7
20260510051506 6 38 1.6 4.8 0.00 0.00 0.00 99 1013.4
20260510051003 6 47 3.2 4.8 0.00 0.00 0.00 99 1013.1
20260510050500 6 56 3.2 4.8 0.00 0.00 0.00 99 1013.2
20260510045957 7 67 0.0 1.6 0.00 0.00 0.00 99 1013.4
20260510045455 7 61 1.6 3.2 0.00 0.00 0.00 99 1013.2
20260510044950 7 160 0.0 1.6 0.00 0.00 0.00 99 1013.1
20260510044447 7 136 0.0 3.2 0.00 0.00 0.00 99 1013.2
20260510043944 6 87 1.6 6.4 0.00 0.00 0.00 99 1013.1
20260510043440 6 110 1.6 3.2 0.00 0.00 0.00 99 1013.0
20260510042939 6 87 1.6 3.2 0.00 0.00 0.00 99 1013.1
20260510042434 7 80 1.6 4.8 0.00 0.00 0.00 99 1012.9
20260510041930 7 59 0.0 3.2 0.00 0.00 0.00 99 1013.0
20260510041428 7 51 1.6 3.2 0.00 0.00 0.00 99 1012.7
20260510040926 7 48 4.8 4.8 0.00 0.00 0.00 99 1012.7
20260510040421 7 64 3.2 4.8 0.00 0.00 0.00 99 1012.3
20260510035916 6 49 0.0 3.2 0.00 0.91 0.91 99 1012.2
20260510035413 7 69 3.2 4.8 0.00 0.91 0.91 99 1012.4
20260510034908 7 74 1.6 3.2 0.00 0.91 0.91 99 1012.4
20260510034407 7 68 0.0 1.6 0.00 0.91 0.91 99 1012.3
20260510033903 7 60 3.2 6.4 0.00 0.91 0.91 99 1012.2
20260510033359 7 45 3.2 4.8 0.00 0.91 0.91 99 1012.1
20260510032856 7 60 3.2 4.8 0.00 0.91 0.91 99 1012.1
20260510032353 7 75 0.0 4.8 0.00 0.91 0.91 99 1012.2
20260510031848 7 89 3.2 3.2 0.00 0.91 0.91 99 1012.1
20260510031344 7 54 0.0 1.6 0.00 0.91 0.91 99 1012.1
20260510030843 7 55 0.0 1.6 0.00 0.91 0.91 99 1012.1
20260510030340 7 340 0.0 3.2 0.00 0.91 0.91 99 1012.2
20260510025838 7 87 1.6 3.2 0.00 0.91 0.91 99 1012.2
20260510025335 7 70 1.6 3.2 0.00 0.91 0.91 99 1012.0
20260510024832 7 70 1.6 3.2 0.00 0.91 0.91 99 1012.3
20260510024329 7 74 1.6 3.2 0.00 0.91 0.91 99 1012.1
20260510023825 7 48 3.2 4.8 0.00 0.91 0.91 99 1012.3
20260510023321 7 59 3.2 4.8 0.00 0.91 0.91 99 1012.1
20260510022819 7 66 3.2 3.2 0.00 0.91 0.91 99 1012.2
20260510022317 8 47 3.2 4.8 0.00 0.91 0.91 99 1012.4
20260510021812 8 41 1.6 3.2 0.00 0.91 0.91 99 1012.3
20260510021310 8 44 1.6 3.2 0.00 0.91 0.91 99 1012.2
20260510020805 8 78 1.6 3.2 0.00 0.91 0.91 99 1012.2
20260510020300 8 124 0.0 4.8 0.00 0.91 0.91 99 1012.2
20260510015756 8 50 3.2 4.8 0.00 0.91 0.91 99 1012.0
20260510015252 8 68 0.0 1.6 0.00 0.91 0.91 99 1012.5
20260510014753 8 52 3.2 3.2 0.00 0.91 0.91 99 1012.2
20260510014250 8 104 1.6 3.2 0.00 0.91 0.91 99 1012.2
20260510013746 8 66 0.0 1.6 0.00 0.91 0.91 99 1012.0
20260510013242 9 321 0.0 1.6 0.00 0.91 0.91 99 1012.0
20260510012737 9 50 0.0 1.6 0.00 0.91 0.91 99 1011.9
20260510012232 9 66 3.2 4.8 0.00 0.91 0.91 99 1011.9
20260510011732 9 50 1.6 3.2 0.00 0.91 0.91 99 1011.9
20260510011228 9 58 0.0 4.8 0.00 0.91 0.91 99 1011.8
20260510010725 9 58 3.2 3.2 0.00 0.91 0.91 99 1011.8
20260510010221 10 48 3.2 3.2 0.00 0.91 0.91 99 1011.8
20260510005718 10 44 0.0 3.2 0.00 0.91 0.91 99 1011.8
20260510005214 10 50 0.0 1.6 0.00 0.91 0.91 99 1011.7
20260510004713 10 55 1.6 3.2 0.00 0.91 0.91 99 1011.4
20260510004211 10 50 0.0 1.6 0.00 0.91 0.91 99 1011.4
20260510003708 10 76 0.0 0.0 0.00 0.91 0.91 99 1011.5
20260510003203 10 50 0.0 0.0 0.00 0.91 0.91 98 1011.7
20260510002657 11 25 0.0 3.2 0.00 0.91 0.91 98 1011.5
20260510002155 11 322 0.0 3.2 0.00 0.91 0.91 98 1011.6
20260510001652 11 99 0.0 1.6 0.00 0.91 0.91 97 1011.5
20260510001150 11 64 1.6 1.6 0.00 0.91 0.91 97 1011.5
20260510000650 11 89 0.0 1.6 0.00 0.91 0.91 97 1011.5
20260510000148 11 43 0.0 3.2 0.00 0.91 0.91 96 1011.5
20260509235644 11 49 0.0 1.6 0.00 0.91 0.91 96 1011.4
20260509235141 12 322 0.0 3.2 0.00 0.91 0.91 95 1011.3
20260509234637 12 355 0.0 3.2 0.00 0.91 0.91 95 1011.2
20260509234135 12 86 0.0 3.2 0.00 0.91 0.91 94 1011.2
20260509233633 12 47 0.0 6.4 0.00 0.91 0.91 93 1010.9
20260509233130 12 156 3.2 4.8 0.00 0.91 0.91 92 1011.1
20260509232626 12 85 1.6 3.2 0.00 0.91 0.91 91 1011.0
20260509232123 12 154 0.0 3.2 0.00 0.91 0.91 91 1011.0
20260509231619 12 162 4.8 6.4 0.00 0.91 0.91 91 1011.0
20260509231117 13 157 0.0 6.4 0.00 0.91 0.91 90 1010.8
20260509230614 13 197 3.2 11.3 0.00 0.91 0.91 90 1011.0
20260509230111 12 203 3.2 3.2 0.00 0.91 0.91 91 1010.9
20260509225607 13 134 3.2 6.4 0.00 0.91 0.91 91 1010.9
20260509225102 13 95 0.0 8.0 0.00 0.91 0.91 91 1010.7
20260509224558 13 29 0.0 4.8 0.00 0.91 0.91 92 1010.6
20260509224055 13 147 3.2 6.4 0.00 0.91 0.91 91 1010.7
20260509223552 13 89 1.6 14.5 0.00 0.91 0.91 89 1010.9
20260509223050 13 180 0.0 4.8 0.00 0.91 0.91 89 1011.0
20260509222545 13 183 3.2 11.3 0.00 0.91 0.91 89 1011.1
20260509222042 13 205 0.0 6.4 0.00 0.91 0.91 90 1011.0
20260509221537 13 19 4.8 11.3 0.00 0.91 0.91 89 1010.9
20260509221033 13 106 3.2 8.0 0.00 0.91 0.91 90 1011.0
20260509220529 13 20 3.2 6.4 0.00 0.91 0.91 92 1011.0
20260509220026 13 102 4.8 4.8 0.00 0.91 0.91 93 1011.2
20260509215521 13 75 0.0 4.8 0.00 0.91 0.91 93 1011.2
20260509215019 13 76 4.8 4.8 0.00 0.91 0.91 95 1011.2
20260509214516 13 341 0.0 3.2 0.00 0.91 0.91 95 1011.3
20260509214013 13 80 1.6 6.4 0.00 0.91 0.91 96 1011.4
20260509213509 12 114 4.8 9.7 0.00 0.91 0.91 96 1011.5
20260509213006 12 95 3.2 4.8 0.00 0.91 0.91 98 1011.5
20260509212503 12 151 1.6 6.4 0.00 0.91 0.91 98 1011.4
20260509212000 12 115 1.6 6.4 0.00 0.91 0.91 98 1011.5
20260509211455 12 53 6.4 9.7 0.00 0.91 0.91 98 1011.5
20260509210952 12 81 4.8 9.7 0.00 0.91 0.91 98 1011.6
20260509210449 12 180 8.0 9.7 0.00 0.91 0.91 98 1011.6
20260509205944 12 180 1.6 9.7 0.00 0.91 0.91 98 1011.7
20260509205439 12 122 3.2 6.4 0.00 0.91 0.91 98 1011.6
20260509204935 12 79 3.2 4.8 0.00 0.91 0.91 98 1011.8
20260509204432 12 97 3.2 6.4 0.00 0.91 0.91 98 1011.8
20260509203928 12 208 3.2 9.7 0.00 0.91 0.91 98 1011.7
20260509203424 12 70 4.8 4.8 0.00 0.91 0.91 99 1011.6
20260509202922 12 128 4.8 8.0 0.00 0.91 0.91 99 1011.7
20260509202418 12 117 1.6 4.8 0.00 0.91 0.91 99 1011.8
20260509201913 11 141 1.6 6.4 0.05 0.91 0.91 99 1011.7
20260509201408 12 68 0.0 3.2 0.00 0.89 0.89 99 1011.7
20260509200906 11 113 3.2 6.4 0.05 0.89 0.89 99 1011.6
20260509200405 11 103 3.2 3.2 0.18 0.89 0.89 99 1011.9
20260509195902 11 106 0.0 8.0 0.18 0.89 0.89 99 1011.8
20260509195402 11 72 3.2 6.4 0.18 0.86 0.86 99 1011.9
20260509194857 11 95 1.6 6.4 0.13 0.86 0.86 99 1011.9
20260509194353 11 187 1.6 9.7 0.18 0.84 0.84 99 1012.0
20260509193849 11 179 4.8 6.4 0.18 0.84 0.84 99 1012.1
20260509193344 11 36 1.6 6.4 0.13 0.81 0.81 99 1012.3
20260509192840 11 86 3.2 4.8 0.13 0.81 0.81 99 1012.4
20260509192336 11 146 0.0 4.8 0.13 0.79 0.79 99 1012.4
20260509191832 11 138 3.2 4.8 0.13 0.79 0.79 99 1012.6
20260509191328 11 102 1.6 6.4 0.13 0.76 0.76 99 1012.5
20260509190824 11 85 3.2 4.8 0.13 0.76 0.76 99 1012.5
20260509190321 11 72 4.8 6.4 0.13 0.74 0.74 99 1012.7
20260509185818 11 76 3.2 6.4 0.18 0.74 0.74 99 1012.5
20260509185309 11 98 1.6 4.8 0.18 0.71 0.71 99 1012.6
20260509184806 11 77 4.8 9.7 0.18 0.71 0.71 99 1012.7
20260509184304 11 95 4.8 6.4 0.13 0.69 0.69 99 1012.5
20260509183800 11 105 3.2 8.0 0.13 0.66 0.66 99 1012.6
20260509183255 11 114 4.8 9.7 0.13 0.66 0.66 99 1012.6
20260509182751 11 113 3.2 9.7 0.18 0.66 0.66 99 1012.7
20260509182249 11 114 3.2 8.0 0.23 0.64 0.64 99 1012.7
20260509181746 11 101 3.2 6.4 0.18 0.61 0.61 99 1012.7
20260509181243 11 145 3.2 6.4 0.18 0.61 0.61 99 1012.7
20260509180740 11 85 3.2 4.8 0.18 0.58 0.58 99 1012.6
20260509180236 11 84 3.2 6.4 0.13 0.56 0.56 99 1012.7
20260509175733 11 110 3.2 4.8 0.13 0.56 0.56 99 1012.7
20260509175229 11 126 4.8 4.8 0.05 0.53 0.53 99 1012.7
20260509174725 11 150 3.2 4.8 0.05 0.53 0.53 99 1012.7
20260509174221 11 246 3.2 6.4 0.05 0.51 0.51 99 1012.7
20260509173717 11 114 1.6 8.0 0.13 0.51 0.51 99 1012.4
20260509173213 11 120 1.6 6.4 0.05 0.51 0.51 99 1012.6
20260509172709 11 125 1.6 11.3 0.00 0.51 0.51 98 1012.6
20260509172206 11 122 1.6 8.0 0.00 0.51 0.51 98 1012.4
20260509171701 12 106 1.6 6.4 0.05 0.51 0.51 99 1012.5
20260509171157 11 104 1.6 12.9 0.05 0.48 0.48 99 1012.4
20260509170654 11 51 3.2 6.4 0.13 0.48 0.48 99 1012.7
20260509170151 11 111 3.2 3.2 0.13 0.48 0.48 99 1012.6
20260509165649 11 187 3.2 8.0 0.05 0.46 0.46 99 1012.4
20260509165144 11 47 3.2 4.8 0.13 0.46 0.46 99 1012.7
20260509164641 11 89 0.0 4.8 0.13 0.46 0.46 99 1012.5
20260509164136 11 147 0.0 6.4 0.30 0.43 0.43 98 1012.7
20260509163634 11 144 1.6 4.8 0.30 0.43 0.43 98 1012.7
20260509163130 11 121 1.6 3.2 0.23 0.38 0.38 97 1012.7
20260509162627 11 101 1.6 3.2 0.18 0.38 0.38 97 1012.8
20260509162123 12 76 3.2 3.2 0.13 0.36 0.36 96 1012.7
20260509161620 12 124 0.0 4.8 0.05 0.33 0.33 96 1012.6
20260509161115 12 92 1.6 6.4 0.00 0.33 0.33 95 1012.7
20260509160611 12 126 0.0 3.2 0.00 0.33 0.33 95 1013.0
20260509160106 12 126 0.0 3.2 0.00 0.33 0.33 95 1012.7
20260509155603 12 106 0.0 4.8 0.05 0.33 0.33 95 1012.7
20260509155059 12 84 1.6 3.2 0.05 0.33 0.33 96 1012.9
20260509154555 12 38 1.6 4.8 0.00 0.33 0.33 96 1012.9
20260509154052 12 96 0.0 4.8 0.00 0.33 0.33 95 1012.9
20260509153549 12 87 1.6 3.2 0.00 0.33 0.33 96 1012.9
20260509153046 12 59 3.2 3.2 0.05 0.33 0.33 97 1013.0
20260509152542 11 62 0.0 3.2 0.05 0.33 0.33 97 1012.9
20260509152040 11 89 1.6 3.2 0.00 0.30 0.30 97 1012.7
20260509151535 11 44 0.0 1.6 0.05 0.30 0.30 98 1013.0
20260509151033 11 57 1.6 3.2 0.13 0.30 0.30 98 1013.1
20260509150531 11 58 1.6 4.8 0.13 0.30 0.30 98 1013.2
20260509150029 11 98 1.6 3.2 0.05 0.28 0.28 98 1013.2
20260509145524 11 88 3.2 3.2 0.05 0.28 0.28 97 1013.1
20260509145019 11 58 3.2 4.8 0.05 0.28 0.28 98 1013.3
20260509144517 11 110 3.2 4.8 0.13 0.28 0.28 98 1013.6
20260509144014 11 81 1.6 3.2 0.05 0.25 0.25 98 1013.5
20260509143511 11 75 0.0 1.6 0.05 0.25 0.25 98 1013.4
20260509143009 11 80 1.6 3.2 0.13 0.25 0.25 98 1013.5
20260509142504 11 68 1.6 3.2 0.05 0.23 0.23 98 1013.4
20260509141959 11 59 1.6 3.2 0.00 0.23 0.23 98 1013.3
20260509141456 11 62 1.6 1.6 0.05 0.23 0.23 98 1013.2
20260509140953 11 55 1.6 3.2 0.00 0.23 0.23 98 1013.3
20260509140449 10 58 3.2 3.2 0.05 0.23 0.23 98 1013.4
20260509135948 10 157 0.0 4.8 0.05 0.20 0.20 98 1013.3
20260509135445 10 85 3.2 4.8 0.13 0.20 0.20 98 1013.3
20260509134942 10 76 1.6 3.2 0.13 0.20 0.20 98 1013.2
20260509134439 10 62 4.8 4.8 0.13 0.18 0.18 98 1013.4
20260509133937 10 24 0.0 3.2 0.05 0.18 0.18 98 1013.3
20260509133433 10 86 0.0 8.0 0.13 0.18 0.18 98 1013.4
20260509132932 10 63 4.8 4.8 0.13 0.15 0.15 98 1013.1
20260509132429 10 64 0.0 4.8 0.05 0.15 0.15 98 1013.2
20260509131926 10 37 1.6 3.2 0.00 0.15 0.15 98 1013.1
20260509131424 10 71 1.6 3.2 0.00 0.15 0.15 98 1013.0
20260509130920 10 43 6.4 8.0 0.05 0.15 0.15 98 1012.9
20260509130415 10 36 1.6 4.8 0.00 0.13 0.13 98 1013.0
20260509125913 10 108 3.2 4.8 0.05 0.13 0.13 98 1013.0
20260509125409 10 59 6.4 9.7 0.00 0.13 0.13 98 1012.8
20260509124905 10 71 4.8 6.4 0.05 0.13 0.13 99 1012.9
20260509124402 10 56 3.2 8.0 0.00 0.10 0.10 99 1012.9
20260509123900 10 66 4.8 6.4 0.00 0.10 0.10 99 1012.9
20260509123357 10 50 1.6 8.0 0.00 0.10 0.10 99 1012.9
20260509122853 10 317 3.2 6.4 0.00 0.10 0.10 99 1013.0
20260509122350 10 45 0.0 3.2 0.00 0.10 0.10 99 1012.9
20260509121846 10 72 1.6 4.8 0.00 0.10 0.10 99 1013.0
20260509121343 10 89 3.2 4.8 0.00 0.10 0.10 99 1013.1
20260509120842 10 45 3.2 4.8 0.00 0.10 0.10 99 1013.2
20260509120339 10 72 4.8 6.4 0.00 0.10 0.10 99 1013.3
20260509115837 10 54 1.6 4.8 0.00 0.10 0.10 99 1013.2
20260509115334 10 74 4.8 8.0 0.00 0.10 0.10 99 1013.1
20260509114832 9 54 1.6 4.8 0.00 0.10 0.10 99 1013.1
20260509114330 9 60 4.8 9.7 0.00 0.10 0.10 99 1013.2
20260509113829 9 38 3.2 8.0 0.00 0.10 0.10 99 1013.3
20260509113326 9 26 3.2 8.0 0.00 0.10 0.10 99 1013.3
20260509112822 9 55 3.2 8.0 0.00 0.10 0.10 99 1013.4
20260509112320 9 43 4.8 8.0 0.00 0.10 0.10 99 1013.3
20260509111817 9 57 1.6 6.4 0.00 0.10 0.10 99 1013.5
20260509111314 9 42 3.2 6.4 0.00 0.10 0.10 99 1013.3
20260509110811 8 52 1.6 8.0 0.00 0.10 0.10 99 1013.4
20260509110307 8 28 4.8 9.7 0.00 0.10 0.10 99 1013.4
20260509105806 8 42 3.2 6.4 0.00 0.10 0.10 99 1013.3
20260509105306 8 55 4.8 8.0 0.00 0.10 0.10 99 1013.5
20260509104800 8 41 8.0 9.7 0.00 0.10 0.10 99 1013.3
20260509104256 8 50 1.6 3.2 0.00 0.10 0.10 99 1013.2
20260509103755 8 81 1.6 3.2 0.00 0.10 0.10 99 1013.3
20260509103251 8 81 0.0 3.2 0.00 0.10 0.10 99 1013.5
20260509102750 8 111 0.0 3.2 0.00 0.10 0.10 99 1013.5
20260509102247 8 85 3.2 6.4 0.00 0.10 0.10 99 1013.6
20260509101743 8 57 3.2 6.4 0.00 0.10 0.10 99 1013.5
20260509101239 8 39 4.8 6.4 0.00 0.10 0.10 99 1013.7
20260509100737 8 66 3.2 4.8 0.00 0.10 0.10 99 1013.5
20260509100234 8 62 3.2 6.4 0.00 0.10 0.10 99 1013.4
20260509095730 8 42 6.4 12.9 0.00 0.10 0.10 99 1013.5
20260509095228 8 65 3.2 8.0 0.00 0.10 0.10 99 1013.3
20260509094725 8 52 6.4 9.7 0.00 0.10 0.10 99 1013.3
20260509094221 8 36 12.9 12.9 0.00 0.10 0.10 99 1013.4
20260509093719 8 49 4.8 8.0 0.00 0.10 0.10 99 1013.3
20260509093216 8 51 6.4 8.0 0.00 0.10 0.10 99 1013.3
20260509092714 8 46 3.2 4.8 0.00 0.10 0.10 99 1013.5
20260509092212 8 51 3.2 4.8 0.00 0.10 0.10 99 1013.4
20260509091710 8 47 3.2 4.8 0.00 0.10 0.10 99 1013.5
20260509091206 8 42 3.2 4.8 0.00 0.10 0.10 99 1013.5
20260509090704 8 74 3.2 4.8 0.00 0.10 0.10 99 1013.6
20260509090201 8 55 3.2 4.8 0.00 0.10 0.10 99 1013.6
20260509085659 8 50 3.2 4.8 0.05 0.10 0.10 99 1013.8
20260509085155 8 52 4.8 6.4 0.05 0.10 0.10 99 1013.7
20260509084652 8 71 4.8 4.8 0.00 0.10 0.10 99 1014.0
20260509084149 8 70 3.2 4.8 0.00 0.10 0.10 99 1014.1
20260509083647 8 84 1.6 3.2 0.00 0.10 0.10 99 1014.2
20260509083142 8 71 1.6 4.8 0.00 0.10 0.10 99 1014.3
20260509082640 8 62 1.6 4.8 0.00 0.10 0.10 99 1014.2
20260509082137 8 49 3.2 4.8 0.00 0.10 0.10 99 1014.3
20260509081634 8 55 3.2 3.2 0.00 0.10 0.10 99 1014.1
20260509081131 8 80 3.2 4.8 0.00 0.10 0.10 99 1014.2
20260509080629 8 53 1.6 3.2 0.00 0.10 0.10 99 1014.2
20260509080127 8 68 0.0 3.2 0.00 0.10 0.10 99 1014.2
20260509075625 8 9 1.6 3.2 0.00 0.10 0.10 99 1013.9
20260509075122 8 44 0.0 3.2 0.00 0.10 0.10 99 1013.9
20260509074618 8 66 0.0 3.2 0.00 0.10 0.10 99 1014.0
20260509074115 8 141 0.0 3.2 0.00 0.10 0.10 99 1014.0
20260509073612 8 125 3.2 3.2 0.00 0.10 0.10 99 1013.9
20260509073108 8 132 0.0 4.8 0.05 0.10 0.10 99 1013.9
20260509072605 8 83 1.6 4.8 0.05 0.10 0.10 99 1014.0
20260509072102 8 57 4.8 6.4 0.00 0.10 0.10 99 1014.0